Snowfall_Accumulation
0.0 0.0 0.0 0.0 0.0 0.0 0.0 0.0 11.3 0.0 0.0 5.4 10.1 11.0 3.3 0.0 0.0 0.0 0.0 0.0 0.0 0.0 0.0 0.0 0.0 0.0 0.0 0.0 0.0 0.0 0.0 0.1 0.7 1.1 0.0 0.0 0.0 0.0 0.1 5.3 3.6 4.8 4.8 1.2
0.0 0.0 0.0 0.0 0.0 0.0 0.0 0.0 1.7 0.0 0.0 11.5 7.3 0.0 0.0 0.0 0.0 0.0 0.0 0.0 0.0 0.0 0.0 0.4 0.0 0.0 0.0 0.0 0.0 0.0 0.0 0.3 0.8 1.3 0.0 0.0 0.3 0.1 0.1 2.1 3.4 2.7 4.2 0.0
0.0 0.0 0.0 0.0 0.0 0.0 0.0 0.0 18.7 0.0 0.0 0.0 1.2 0.7 1.3 0.5 0.0 0.0 0.0 0.3 0.0 0.0 0.2 0.1 0.1 0.0 0.0 0.0 0.0 0.0 0.0 0.0 0.0 0.3 0.6 1.2 1.8 0.0 0.6 3.8 5.3 0.2 0.4 0.1
0.0 0.0 0.0 0.0 0.0 0.0 0.0 0.0 11.6 0.0 10.2 3.2 0.7 1.2 1.5 0.7 0.6 0.0 0.0 0.8 0.0 0.1 1.6 0.5 0.1 0.0 0.0 0.0 0.0 0.0 0.0 0.3 0.0 0.0 0.6 1.9 2.0 0.7 0.4 3.0 0.5 1.9 0.0 0.0
0.0 0.0 0.0 0.0 0.0 0.0 0.0 0.0 0.0 0.0 3.8 0.4 1.2 3.3 3.0 0.6 0.3 0.3 0.2 0.7 0.2 0.2 1.6 1.1 1.6 0.6 0.5 0.2 0.0 0.0 0.2 1.4 0.4 0.9 0.0 0.9 1.6 0.4 0.4 0.2 0.0 0.2 0.0 0.0
0.0 0.0 0.0 0.0 0.0 0.0 0.0 0.0 0.0 0.0 0.3 1.1 2.4 3.1 0.6 1.0 0.4 0.0 0.3 0.2 0.3 0.3 0.4 0.0 0.0 0.1 0.0 0.0 0.2 0.1 1.1 1.6 2.8 1.7 0.0 1.0 1.0 0.2 0.1 0.0 0.0 0.0 0.1 0.0
0.0 0.0 0.0 0.0 0.0 0.0 0.0 0.0 0.0 6.3 7.3 2.5 1.0 0.9 0.4 0.5 0.6 1.1 0.1 0.0 0.7 0.0 0.0 0.0 0.0 0.0 0.2 0.2 0.2 0.2 0.6 0.7 3.3 2.8 1.1 3.3 0.0 0.0 0.0 0.0 0.0 0.0 0.0 0.0
0.0 0.0 0.0 0.0 0.0 0.0 0.0 0.0 0.0 2.7 6.7 1.2 0.8 0.6 0.3 0.3 0.3 0.5 0.1 0.4 0.2 0.0 0.1 0.6 0.3 0.2 0.0 0.0 0.0 0.2 0.7 1.6 4.4 3.1 1.9 0.0 0.0 0.0 0.0 0.0 0.0 0.0 0.0 0.0
0.0 0.0 0.0 0.0 0.0 0.0 0.0 0.0 0.0 0.0 5.4 2.0 0.0 0.5 0.3 0.2 0.7 1.4 0.8 0.0 0.0 0.2 0.6 1.0 2.0 0.4 0.1 0.0 0.0 0.0 0.0 1.6 4.9 3.1 2.4 0.1 0.0 0.0 0.0 0.0 0.0 0.0 0.0 0.0
0.0 0.0 0.0 0.0 0.0 0.0 0.0 0.0 0.0 0.0 4.7 0.4 0.0 1.4 0.7 0.0 0.1 1.2 0.0 0.6 1.1 0.8 1.7 3.0 1.3 0.2 0.0 0.1 0.0 0.2 0.5 1.3 5.0 2.7 4.1 0.0 0.0 0.0 0.0 0.0 0.0 0.0 0.0 0.0
0.0 0.0 0.0 0.0 0.0 0.0 0.0 0.0 0.0 0.0 1.1 0.2 0.0 0.0 0.0 0.0 0.0 1.5 0.0 2.4 2.6 2.5 3.7 1.8 0.5 0.2 0.0 0.0 0.0 0.0 0.0 0.3 0.4 1.4 2.6 0.9 0.0 0.0 0.0 0.0 0.0 0.0 0.0 0.0
0.0 0.0 0.0 0.0 0.0 0.0 0.0 0.0 0.0 0.0 0.9 2.7 0.0 0.0 0.0 0.0 0.0 0.0 0.0 0.1 0.0 0.7 2.3 2.0 0.9 0.6 0.1 0.1 0.0 0.0 0.0 0.0 0.0 0.0 0.2 0.0 0.0 0.0 0.0 0.0 0.0 0.0 0.0 0.0
0.0 0.0 0.0 0.0 0.0 0.0 0.0 0.0 0.0 0.0 3.9 0.9 0.4 0.1 0.0 0.0 0.0 0.0 0.7 0.3 0.0 0.0 0.0 1.2 1.6 1.8 0.5 0.2 0.0 0.0 0.0 0.0 0.0 0.0 0.0 0.0 0.0 0.0 0.0 0.0 0.0 0.0 0.0 0.0
0.0 0.0 0.0 0.0 0.0 0.0 0.0 0.0 0.0 0.0 3.3 5.5 1.0 0.0 0.0 0.0 0.0 0.0 0.0 0.0 0.0 0.0 0.0 3.5 4.2 3.5 0.0 0.0 0.2 0.0 0.0 0.0 0.0 0.0 0.0 0.0 0.0 0.0 0.0 0.0 0.0 0.0 0.0 0.0
0.0 0.0 0.0 0.0 0.0 0.0 0.0 0.0 0.0 0.0 0.6 5.5 1.0 0.0 0.0 0.0 0.0 0.0 0.0 0.0 0.0 2.6 5.5 6.6 3.3 0.2 1.0 0.0 0.6 0.4 0.0 0.0 0.0 0.0 0.0 0.0 0.0 0.0 0.0 0.0 0.0 0.0 0.0 0.0
0.0 0.0 0.0 0.0 0.0 0.0 0.0 0.9 0.0 0.0 0.0 12.2 7.7 0.0 0.0 0.0 0.0 0.0 0.0 0.0 0.0 3.2 4.5 4.8 0.1 0.0 0.6 2.7 0.0 0.0 0.0 0.0 0.0 0.0 0.0 0.0 0.0 0.0 0.0 0.0 0.0 0.0 0.0 0.0
0.0 0.0 0.0 0.0 0.0 0.0 8.3 0.2 0.0 0.0 0.0 13.5 10.5 5.2 0.9 0.0 0.0 0.0 0.0 0.0 0.0 4.0 7.1 3.7 0.6 0.2 2.4 4.8 1.0 0.0 0.0 0.0 0.0 0.0 0.0 0.0 0.0 0.0 0.0 0.0 0.0 0.0 0.0 0.0
0.0 0.0 0.0 0.0 0.0 0.0 0.5 0.0 0.0 0.0 2.7 12.7 17.2 9.4 4.0 0.6 3.9 3.0 0.0 3.7 5.7 6.0 5.0 1.8 0.6 0.9 4.9 5.2 0.0 0.0 0.0 0.0 0.0 0.0 0.0 0.0 0.0 0.0 0.0 0.0 0.0 0.0 0.0 0.0
0.0 0.0 0.0 0.0 0.0 0.0 0.0 0.0 0.0 0.0 0.8 15.9 10.9 7.2 5.6 0.5 2.0 2.4 3.8 3.7 11.6 4.1 5.4 1.3 1.0 2.8 5.2 0.0 0.1 0.1 0.0 0.2 0.2 0.2 0.0 0.0 0.0 0.0 0.0 0.0 0.0 0.0 0.0 0.0
0.0 0.0 0.8 12.8 0.0 0.0 0.0 0.0 7.4 11.3 12.5 12.2 7.9 5.2 6.2 3.1 4.7 3.8 4.5 5.6 5.0 6.4 0.8 0.0 4.6 0.3 0.0 0.1 0.9 1.5 1.7 1.0 1.2 2.0 3.8 1.6 1.0 0.0 0.0 0.0 0.0 0.0 0.0 0.0
0.0 8.6 12.6 0.0 0.0 0.1 3.9 30.7 28.3 18.7 12.3 4.8 3.9 4.7 3.7 0.0 6.3 5.3 3.3 10.2 6.6 8.0 5.4 3.0 4.2 3.4 5.6 3.5 3.1 3.4 2.4 2.0 1.6 1.5 1.5 1.2 3.2 3.0 1.4 0.7 0.2 0.0 0.0 0.0
0.0 0.0 0.0 2.0 10.5 35.6 35.4 23.4 11.8 4.0 2.5 2.1 5.7 4.4 1.7 2.5 1.0 7.1 5.1 7.3 6.7 6.6 8.2 10.9 5.2 4.9 1.5 3.5 4.6 3.2 1.7 2.1 2.0 1.5 2.3 1.6 1.2 1.7 3.1 2.1 1.9 1.6 1.7 1.6
0.7 16.8 35.2 36.0 35.9 31.6 19.7 8.4 6.2 2.6 3.8 4.2 5.7 4.7 5.2 6.4 8.2 9.7 5.8 7.5 3.0 1.3 6.4 5.7 5.1 1.9 1.7 2.4 2.9 2.1 3.4 5.4 4.0 2.5 2.3 2.8 2.6 1.8 3.3 3.5 1.2 1.3 1.2 0.9
12.2 34.5 33.5 25.5 23.3 8.8 5.0 3.5 3.1 1.6 1.2 1.1 2.3 3.3 6.1 6.8 11.2 8.6 8.6 2.5 3.5 6.4 5.9 4.7 1.5 1.4 1.5 1.3 1.0 1.6 1.5 3.3 3.9 4.6 3.7 3.7 3.9 3.1 2.8 2.7 1.8 1.5 0.7 0.2
28.8 26.7 19.7 11.5 5.0 4.2 4.8 4.1 2.1 1.2 1.5 2.8 3.7 5.7 4.2 6.9 13.3 8.1 3.7 5.4 6.7 7.1 5.1 2.4 0.9 0.5 0.5 0.4 0.4 0.8 1.4 2.8 3.1 2.3 1.8 3.3 3.1 3.8 2.9 1.8 2.0 1.2 1.0 0.5
26.6 19.7 8.5 1.8 1.6 2.3 2.1 2.6 2.6 1.7 1.6 3.1 5.6 9.9 9.9 7.5 8.7 7.1 4.4 5.6 4.6 4.4 2.1 0.3 0.3 0.4 0.1 0.4 0.2 0.7 2.1 2.4 3.8 5.0 2.6 2.2 4.0 3.8 2.4 1.4 1.7 1.4 0.8 1.1
23.5 10.3 2.4 2.1 2.3 3.7 3.6 4.2 5.0 4.8 6.5 10.1 11.6 12.0 5.7 6.9 6.3 4.7 2.8 2.8 1.9 1.5 0.7 0.5 0.6 1.6 1.5 1.3 0.6 0.7 1.5 1.4 2.9 5.5 3.5 3.7 5.0 6.0 5.0 3.1 1.7 1.4 1.7 2.2